Location: Codford Saint Peter
(51.1597°N, 2.0531°W)
Time: 01:06:41
(UTC+00:00)

Cosmos 494 Rocket - Pass Details

Date: 18 September 2020
Orbit: 741 x 771 km, 74.1° (Epoch: 30 October)

Event Time Altitude Azimuth Distance (km) Brightness Sun altitude
Rises 19:55:21 0° 336° (NNW) 3,243 8.0 -16.1°
Reaches altitude 10° 19:57:46 10° 340° (NNW) 2,317 7.1 -16.5°
Maximum altitude 20:03:00 65° 62° (ENE) 849 4.0 -17.2°
Enters shadow 20:05:39 29° 136° (SE) 1,383 4.8 -17.6°
